Location: Salisbury
(38.3600°N, 75.6000°W)
Time: 18:39:26
(UTC-04:00)

Daily predictions for brighter satellites

Satellite Brightness Start Highest point End
(mag) Time Altitude Azimuth Time Altitude Azimuth Time Altitude Azimuth
Cosmos 2227 Rocket 2.2 19:54:06 10° NNW 19:59:48 82° ENE 20:05:27 10° SSE
CZ-3C R/B 4.5 18:05:27 10° WSW 20:00:36 46° SSW 20:11:42 10° SE
Spot 2 Rocket 3.5 19:56:33 10° SSE 20:01:39 86° ENE 20:06:45 10° NNW
Cosmos 1500 4.3 20:01:35 10° SE 20:04:34 23° E 20:07:35 10° NE
SL-24 R/B - RUBIN 2 4.4 20:00:41 10° SSW 20:06:28 84° ESE 20:12:57 10° NNE
Cosmos 1975 3.2 20:03:24 10° SSE 20:07:16 43° E 20:11:11 10° NNE
Meteor 2-15 4.5 20:01:43 10° N 20:07:48 90° E 20:13:52 10° S
CZ-2D R/B 3.9 20:05:45 10° SE 20:09:17 35° ENE 20:12:52 10° N
Lacrosse 5 rocket 1.5 20:06:52 10° NW 20:10:32 59° SW 20:14:04 10° SSE
Cosmos 2084 3.7 20:06:49 10° NNW 20:10:49 51° NE 20:15:00 10° SE
OTV 4 2.6 20:10:55 10° WSW 20:13:05 18° SSW 20:15:14 10° SSE
Cosmos 1937 Rocket 4.5 20:08:39 10° N 20:13:16 30° ENE 20:17:52 10° SE
Centaur D-1A AC-32 4.0 20:11:36 10° SW 20:14:28 15° SSW 20:16:35 10° SSE
Cosmos 2297 Rocket 2.2 20:08:50 10° NNW 20:14:31 77° ENE 20:20:10 10° SSE
FengYun 1-2 T 4.3 20:09:27 10° SSE 20:15:05 79° ENE 20:20:42 10° N
Meteor 2-15 Rocket 4.5 20:09:10 10° N 20:15:17 88° E 20:21:20 10° S
Cosmos 1605 Rocket 4.0 20:10:57 10° S 20:17:16 79° E 20:23:32 10° N
Cosmos 2082 3.9 20:11:40 10° NNW 20:17:17 77° WSW 20:22:53 10° SSE
Cosmos 2298 Rocket 4.2 20:16:28 10° N 20:21:41 54° ENE 20:26:53 10° SE
Cosmos 1626 Rocket 3.6 20:17:39 10° N 20:22:00 59° E 20:26:17 10° SSE
Cosmos 220 Rocket 3.9 20:19:20 10° NNW 20:23:35 82° ENE 20:27:47 10° SSE
USA 186 2.2 20:21:39 10° SE 20:24:23 35° ENE 20:27:00 10° N
Cosmos 1455 Rocket 4.0 20:20:48 10° SSW 20:25:00 52° W 20:29:17 10° N
ALOS 2.2 20:20:48 10° SSE 20:25:26 69° ENE 20:30:06 10° N
Cosmos 2100 Rocket 4.4 20:23:12 10° SSE 20:28:58 40° E 20:34:42 10° NNE
OAO 2 Rocket 3.5 20:24:53 10° W 20:29:47 59° S 20:33:36 17° ESE
Cosmos 1515 3.8 20:26:55 10° N 20:30:41 52° E 20:34:23 10° SSE
CZ-4 DEB 4.3 20:30:35 17° E 20:31:19 18° ENE 20:33:34 10° NNE
ERS-1 Rocket 4.0 20:28:46 15° ESE 20:32:02 28° ENE 20:36:15 10° N
Cosmos 1602 Rocket 3.5 20:28:14 10° N 20:32:41 80° E 20:37:05 10° S
Meteor 1-12 Rocket 4.4 20:29:20 10° S 20:35:04 84° W 20:40:58 10° N
Cosmos 1763 Rocket 3.8 20:39:05 10° S 20:43:51 41° ESE 20:48:36 10° NNE
Cosmos 2061 Rocket 4.2 20:39:12 10° SSE 20:45:14 50° E 20:51:14 10° NNE
Cosmos 1697 Rocket 2.8 20:40:34 10° SSW 20:46:13 82° WNW 20:51:54 10° NNE
Cosmos 2150 Rocket 3.9 20:41:28 10° NNW 20:46:39 80° ENE 20:51:18 13° SSE
Tiangong 1 1.1 20:45:27 10° WNW 20:48:33 70° NNE 20:49:40 35° E
Cosmos 1939 Rocket 3.9 20:47:20 24° ESE 20:48:37 29° ENE 20:52:14 10° N
Cosmos 1743 3.0 20:45:15 11° SSE 20:48:52 44° E 20:52:37 10° NNE
Cosmos 1459 Rocket 4.0 20:46:29 10° S 20:52:24 58° E 20:58:23 10° NNE
Cosmos 1066 Rocket 4.2 20:49:27 10° N 20:55:12 78° E 21:01:01 10° SSE
Cosmos 1898 Rocket 3.6 20:51:39 10° NNW 20:56:58 78° WSW 21:01:43 13° SSE
SL-16 R/B 3.0 21:00:04 27° ESE 21:00:22 27° ESE 21:05:02 10° NE
Cosmos 1606 Rocket 3.7 21:01:24 23° SSE 21:03:50 50° E 21:08:07 10° NNE
Cosmos 2058 Rocket 3.9 21:03:44 31° E 21:03:50 31° E 21:07:50 10° NNE
Cosmos 2098 Rocket 4.4 21:02:48 19° SSE 21:07:11 41° E 21:12:27 10° NNE
BREEZE-M DEB (TANK) 4.2 20:49:01 10° WSW 21:07:43 84° NNW 21:12:09 13° ENE
Cosmos 841 Rocket 3.4 21:03:52 10° S 21:09:01 65° ESE 21:14:12 10° NNE
Cosmos 1980 Rocket 2.2 21:05:00 10° SSW 21:10:39 85° WNW 21:16:24 10° NNE
ASTEX 1 4.0 21:07:41 10° NNE 21:12:13 34° E 21:12:21 34° E
DELTA 2 R/B (1) 4.3 21:07:02 10° W 21:12:14 41° SSW 21:14:35 27° SSE
RESURS DK-1 2.8 21:12:16 10° NNW 21:16:22 60° WSW 21:18:10 31° S
Cosmos 1726 Rocket 3.4 21:24:43 44° S 21:26:03 77° E 21:30:28 10° N
Cosmos 1842 3.9 21:24:51 10° N 21:27:49 40° NE 21:27:49 40° NE
Cosmos 1666 3.4 21:29:44 42° NE 21:29:44 42° NE 21:32:27 10° NNE
YAOGAN 6 4.4 21:30:58 22° NNE 21:30:58 22° NNE 21:32:48 10° N
SL-08 R/B 4.3 21:29:48 22° S 21:34:03 75° E 21:40:12 10° N
Cosmos 2263 Rocket 3.4 21:31:53 10° N 21:36:29 26° ENE 21:36:35 26° ENE
Cosmos 1802 Rocket 4.3 21:32:33 10° SSW 21:38:55 70° W 21:45:22 10° N
Lacrosse 5 2.8 21:35:48 10° WNW 21:40:29 39° SW 21:41:56 32° SSW
Cosmos 1825 Rocket 4.3 21:38:30 10° NNW 21:42:47 51° W 21:44:13 35° SW
Cosmos 2016 Rocket 4.1 21:37:34 10° SSW 21:43:41 76° W 21:49:54 10° N
Cosmos 2322 Rocket 2.0 21:43:34 42° S 21:45:26 72° ESE 21:51:03 10° NNE
Cosmos 1340 3.6 21:43:40 10° NNW 21:47:18 44° W 21:47:32 43° WSW
SPOT 5 2.8 21:47:47 71° ENE 21:47:47 71° ENE 21:52:31 10° N
Envisat 3.2 21:49:38 46° SSW 21:50:59 65° WSW 21:56:03 10° NNW
MetOp-A 4.0 21:52:04 70° E 21:52:18 71° ENE 21:57:39 10° N
Cosmos 2228 4.0 21:55:49 39° NNE 21:55:49 39° NNE 21:58:34 10° N
H-2A R/B 2.3 21:55:01 61° NNW 21:55:01 61° NNW 21:58:31 10° NNW
Cosmos 1953 Rocket 4.2 21:50:45 10° NNW 21:55:06 52° W 21:55:42 48° WSW
Nimbus 7 Rocket 4.4 21:51:41 10° NNE 21:57:47 82° WNW 22:01:08 28° SSW
Meteor 2-9 Rocket 4.2 21:57:29 43° SSW 21:59:20 74° W 22:04:44 10° N
Terra 4.0 22:03:43 16° NE 22:03:43 16° NE 22:05:08 10° NNE
Meteor 1-15 Rocket 4.3 22:02:11 47° SSW 22:03:59 79° W 22:09:53 10° N
USA 245 4.4 22:06:08 70° E 22:06:24 71° ENE 22:12:41 10° N
ERS-1 Rocket 4.5 22:08:47 24° SW 22:10:41 31° W 22:15:08 10° NW
BREEZE-M DEB (TANK) 4.2 22:16:15 10° NW 22:17:24 27° NW 22:17:24 27° NW
H-2A R/B 3.5 22:25:29 26° NNE 22:25:29 26° NNE 22:27:55 10° N
Meteor 2-17 Rocket 4.4 22:24:21 81° NW 22:24:21 81° NW 22:30:11 10° N
BREEZE-M DEB (TANK) 4.3 22:10:30 10° SW 22:24:33 79° NW 22:25:52 55° NE
Tsikada Rocket 4.4 22:23:09 10° NNW 22:29:26 58° W 22:30:24 52° SW
ARGOS 3.8 22:39:04 52° NW 22:39:04 52° NW 22:43:12 10° NNW
USA 215 4.2 22:37:03 35° NE 22:37:50 36° NNE 22:43:41 10° NNW
SL-16 R/B 3.4 22:41:42 26° WSW 22:44:13 39° WNW 22:49:33 10° N
Cosmos 2360 Rocket 4.0 22:58:32 24° NNE 22:58:32 24° NNE 23:00:42 10° NNE
Cosmos 2263 Rocket 3.8 23:15:19 10° NW 23:18:16 29° WNW 23:18:16 29° WNW
Terra 4.5 23:42:37 16° NW 23:42:37 16° NW 23:43:39 10° NNW
